EHI
0 0 1 0 0 1 1 2 3 5 6 6 6 5 3 2 1 1 2 2 3 4 5 5 4 1 0 0 0 0 0 0 0 0 1 0 0 0 0 0 0 0 0
0 1 1 1 1 2 2 2 3 4 5 5 5 3 1 1 0 0 1 1 2 3 3 2 2 1 0 0 0 0 0 0 0 0 1 0 0 0 0 0 0 0 0
0 1 1 1 1 2 2 1 1 3 3 2 2 1 0 0 0 0 0 0 1 1 1 0 0 0 0 0 0 0 1 0 0 0 0 0 0 0 0 0 0 0 0
0 0 0 0 1 2 2 1 0 1 1 0 0 0 0 0 0 0 0 0 0 0 0 0 0 0 0 0 0 0 0 0 0 0 0 0 0 0 0 0 0 0 0
0 0 0 0 1 2 2 1 0 0 0 0 0 0 0 0 0 0 0 0 0 0 0 0 0 0 0 0 0 0 0 0 0 0 0 0 0 0 0 0 0 0 0
0 0 0 1 2 2 1 0 0 0 0 0 0 0 0 0 0 0 0 0 0 0 0 0 0 0 0 0 0 0 0 0 0 0 0 0 0 0 0 0 0 0 0
1 0 0 1 2 2 1 0 1 0 0 0 0 0 0 0 0 0 0 0 0 0 0 0 0 0 0 0 0 0 0 0 0 0 0 0 0 0 0 0 0 0 0
1 0 0 1 2 2 1 0 0 0 0 0 0 0 0 0 0 0 0 0 0 0 0 0 0 0 0 0 0 0 0 0 0 0 0 0 0 0 0 0 0 0 0
1 0 0 1 2 2 1 0 0 0 0 0 0 0 0 0 0 0 0 0 0 0 0 0 0 0 0 0 0 0 1 0 0 0 0 0 0 0 0 0 0 0 0
0 0 0 0 1 1 0 0 0 0 0 0 0 0 0 0 0 1 0 0 0 0 0 0 0 0 0 0 0 0 0 0 0 0 0 0 0 0 0 0 0 0 0
0 0 0 0 0 0 0 0 0 0 0 0 0 0 0 0 0 0 0 0 0 0 0 0 0 0 0 0 0 0 0 0 0 0 0 0 0 0 0 0 0 0 0
0 0 0 0 0 0 0 0 0 0 0 0 0 0 0 0 0 0 0 0 0 0 0 0 0 0 0 0 0 0 0 0 0 0 0 0 0 0 0 0 0 0 0
0 0 0 0 0 0 0 0 0 0 0 0 0 0 0 0 0 0 0 0 0 0 0 0 0 0 0 0 0 0 0 0 0 0 0 0 0 0 0 0 0 0 0
0 0 0 0 0 0 0 0 0 0 0 0 0 0 0 0 0 0 0 0 0 0 0 0 0 0 0 0 0 0 0 0 0 0 0 0 0 0 1 1 1 1 1
0 0 0 0 0 0 0 0 0 0 0 0 0 0 0 0 0 0 0 0 0 0 0 0 0 0 0 0 0 0 0 0 0 0 0 0 0 0 0 1 1 2 2
0 0 0 0 0 0 0 0 0 0 0 0 0 0 0 0 0 0 0 0 0 0 0 0 0 0 0 0 0 0 0 0 0 0 0 0 0 0 0 0 1 1 1
0 0 0 0 0 0 0 0 0 0 0 0 0 0 0 0 0 0 0 0 0 0 0 0 0 0 0 0 0 0 0 0 0 0 0 0 0 0 0 0 0 0 0
0 0 0 0 0 0 0 0 0 0 0 0 0 0 0 0 0 0 0 0 0 0 0 0 0 0 0 0 0 0 0 0 0 0 0 0 0 0 0 0 0 0 0
0 0 0 0 0 0 0 0 0 0 0 0 0 0 0 0 0 0 0 0 0 0 0 0 0 0 0 0 0 0 0 0 0 0 0 0 0 0 0 0 0 0 0
0 0 0 0 0 0 0 0 0 0 0 0 0 0 0 0 0 0 0 0 0 0 0 0 0 0 0 0 0 0 0 0 0 0 0 0 0 0 0 0 0 0 0
0 0 0 0 0 0 0 0 0 0 0 0 0 0 0 0 0 0 0 0 0 0 0 0 0 0 0 0 0 0 0 0 0 0 0 0 0 0 0 0 0 0 0
0 0 0 1 1 1 0 0 0 0 0 0 0 0 0 0 0 0 0 0 0 0 0 0 0 0 0 0 0 0 0 0 0 0 0 0 0 0 0 0 0 0 0
1 1 1 1 2 1 0 0 0 0 0 0 0 0 0 0 0 0 0 0 0 0 0 0 0 0 0 0 0 0 0 0 0 0 0 0 0 0 0 0 0 0 0
2 2 3 3 2 1 0 0 0 0 0 0 0 0 0 0 0 0 0 0 0 0 0 0 0 0 0 0 0 0 0 0 0 0 0 0 0 0 0 0 0 0 0
2 3 3 3 2 1 0 0 0 0 0 0 0 0 0 0 0 0 0 0 0 0 0 0 0 0 0 0 0 0 0 0 0 0 0 0 0 0 0 0 0 0 0
2 3 3 2 1 1 1 0 0 0 0 0 0 0 0 0 0 0 0 0 0 0 0 0 0 0 0 0 0 0 0 0 0 0 0 0 0 0 0 0 0 0 0
Wind_Speed
2 2 1 4 6 7 8 8 10 10 11 11 12 12 12 12 12 12 12 12 12 12 12 11 11 11 11 11 10 10 10 9 9 9 9 9 9 9 8 8 7 4 8
1 1 2 4 6 7 8 8 10 10 11 11 11 11 11 11 11 11 12 12 12 12 12 12 11 11 11 10 10 10 9 9 9 9 8 7 8 8 8 8 7 5 7
1 1 2 5 6 7 8 9 9 10 10 10 10 11 11 11 11 11 11 11 11 11 11 11 11 11 10 10 10 9 9 9 9 9 7 4 4 7 7 7 7 7 7
2 2 2 5 7 8 8 9 9 9 9 10 10 10 11 11 11 11 11 11 11 11 10 10 11 10 10 10 9 9 9 9 9 8 4 4 3 7 7 7 7 7 7
3 2 2 5 7 8 8 8 8 9 9 9 9 9 10 10 10 10 10 10 10 10 10 10 10 10 10 9 9 8 9 9 9 7 4 4 3 6 7 7 6 6 7
2 2 3 5 7 7 8 8 8 8 9 9 9 9 10 10 10 10 10 10 10 10 10 10 10 10 9 9 8 8 8 8 6 4 4 3 3 6 7 7 6 6 7
2 2 2 5 6 7 7 8 8 8 9 9 8 9 9 9 9 10 10 10 10 10 10 9 9 9 9 9 8 7 8 8 5 4 3 3 3 6 7 7 7 7 7
3 2 2 4 5 6 6 7 8 8 8 8 8 8 9 9 9 9 9 9 9 9 9 9 9 9 10 9 8 7 7 6 5 4 3 3 4 6 7 7 7 6 6
3 3 3 3 3 5 6 7 7 7 7 8 8 8 8 8 8 8 9 9 9 9 9 10 10 10 10 10 10 9 9 9 5 3 3 2 4 6 7 7 6 6 6
3 3 2 3 3 3 3 5 6 6 7 7 7 8 8 8 8 8 8 8 9 9 10 10 10 10 11 11 11 10 10 8 5 4 3 2 5 6 7 6 6 5 6
2 1 1 2 2 2 2 4 4 5 6 6 6 8 7 4 5 5 7 9 9 10 10 10 11 11 11 10 11 11 8 4 4 3 2 4 5 6 7 6 6 6 5
2 1 1 1 1 2 2 3 2 3 3 3 3 4 3 3 4 5 7 9 10 10 10 11 11 10 8 5 7 8 4 4 4 3 3 5 5 6 6 6 6 6 5
3 2 2 1 1 1 1 2 2 2 2 3 3 3 3 3 3 4 3 4 5 7 5 6 6 5 5 4 4 4 4 4 3 3 3 6 6 7 7 6 6 5 5
3 3 2 2 1 1 1 1 1 1 1 2 2 3 2 2 2 2 2 2 3 2 3 3 3 4 5 5 5 5 4 3 3 3 4 8 7 7 7 6 6 6 6
4 3 3 2 2 2 1 1 2 1 1 1 2 2 2 2 2 2 2 2 3 2 2 3 3 4 4 5 4 4 4 4 4 4 4 9 9 9 7 6 6 6 6
4 4 3 3 3 2 2 1 1 1 1 1 1 1 2 2 2 2 2 2 2 2 2 2 3 3 3 3 4 5 4 4 4 4 4 6 10 10 9 8 6 6 6
5 4 4 4 3 3 2 2 1 1 1 1 1 1 2 2 2 2 2 2 2 2 2 3 3 3 3 3 4 4 4 4 4 4 4 4 4 8 9 8 7 6 6
4 4 4 4 4 3 2 2 1 1 1 1 1 1 1 2 2 2 2 2 2 2 2 2 3 3 3 3 3 3 3 3 4 4 4 4 4 4 6 9 8 7 6
5 5 4 3 4 3 2 2 2 2 1 1 1 1 1 2 2 2 2 1 2 2 2 2 3 2 2 3 2 3 3 3 3 4 4 4 4 4 4 6 9 9 7
4 4 4 4 3 3 2 2 2 2 1 1 1 1 1 2 2 2 2 2 2 2 2 2 3 3 2 2 3 3 3 3 3 3 3 3 4 4 4 5 4 5 9
3 3 4 4 4 3 2 2 1 0 0 0 0 1 1 2 2 2 2 2 2 2 2 2 2 3 2 2 2 2 3 3 3 3 3 3 4 4 4 5 4 3 4
5 5 5 4 4 4 3 2 2 2 1 0 0 1 1 2 2 2 3 2 2 2 2 2 2 2 1 2 2 2 2 3 3 3 3 3 3 3 4 5 4 4 3
6 6 6 5 4 4 3 2 2 2 2 1 1 0 0 1 1 2 3 3 2 2 2 1 2 2 1 1 2 2 2 1 2 3 3 3 3 3 3 3 4 4 4
7 5 5 5 5 4 4 4 4 3 2 3 1 1 0 0 1 2 2 3 2 2 2 1 2 1 2 1 1 1 1 2 1 1 3 3 3 3 3 3 4 4 4
5 5 4 4 4 4 4 5 4 2 2 1 1 1 0 0 1 1 2 2 2 2 2 2 2 1 2 2 1 1 1 1 1 1 1 3 2 2 2 2 2 3 3
3 4 4 4 4 4 4 4 4 4 3 2 1 1 1 1 1 1 2 2 2 2 2 2 2 2 1 2 1 1 2 2 1 1 1 1 1 2 2 2 2 2 2
Wind_Direction
291 296 359 71 72 72 74 78 80 79 78 78 76 74 73 73 74 74 74 74 74 74 76 77 78 78 78 81 84 88 90 89 87 87 87 88 88 90 90 90 87 83 98
217 289 71 77 80 81 80 81 81 79 79 79 77 76 75 75 74 74 74 74 73 72 71 72 74 75 76 77 80 83 84 85 85 84 80 80 87 90 89 90 93 93 97
118 69 83 87 87 84 84 85 82 79 79 78 77 75 73 73 72 72 74 74 73 72 69 68 70 71 71 73 74 77 79 82 81 76 69 53 73 88 88 90 92 94 94
110 80 89 91 90 87 87 88 85 82 79 78 75 73 72 70 70 69 72 73 73 73 71 68 67 67 67 69 70 73 78 79 76 71 57 45 58 83 83 84 89 90 88
93 73 89 94 91 88 89 89 87 83 79 77 74 72 71 70 68 67 69 70 70 69 68 68 65 64 64 65 66 71 77 78 71 61 52 47 50 75 76 73 79 86 87
91 70 83 92 91 90 91 92 87 83 80 78 75 73 72 70 67 64 65 68 67 66 67 66 64 62 58 60 63 71 76 77 68 57 52 48 50 77 79 74 74 81 84
102 71 74 91 91 89 89 89 86 82 80 80 76 73 74 72 69 67 64 64 64 64 63 64 63 60 59 56 58 67 74 75 67 60 52 44 54 75 76 73 72 79 80
104 77 64 90 93 88 90 89 88 83 81 78 75 73 71 70 68 66 64 63 61 59 60 60 60 58 55 52 53 63 71 70 66 58 51 42 62 72 72 67 70 72 75
82 73 50 49 67 78 85 89 86 84 81 77 72 71 69 66 64 63 63 63 62 60 58 58 58 57 56 54 53 62 71 67 58 45 48 39 65 70 75 71 69 68 70
70 65 57 45 48 49 59 81 85 84 81 75 69 68 67 60 54 54 53 56 59 61 58 56 56 56 56 57 58 63 67 60 48 38 24 42 65 66 67 69 67 65 66
103 59 60 53 52 52 49 64 65 71 70 65 59 62 59 44 39 42 48 55 57 58 57 53 55 54 53 52 56 58 56 47 42 32 18 42 61 67 66 66 65 63 63
175 184 125 93 70 57 55 53 41 47 50 51 50 53 52 47 41 46 45 52 53 54 54 53 52 50 46 38 45 48 43 38 37 22 22 41 59 68 64 61 60 60 60
182 178 170 158 105 78 60 62 47 44 47 47 50 55 56 50 42 41 38 36 39 45 43 44 44 40 42 40 38 39 40 37 22 13 17 38 50 56 56 56 57 56 58
168 185 177 161 133 105 90 78 74 61 56 51 49 61 64 56 47 44 47 40 40 39 42 41 45 41 43 41 43 42 40 37 22 10 19 36 41 46 47 47 50 54 54
177 187 173 154 148 134 103 93 92 74 69 66 56 59 77 82 67 56 51 49 46 43 48 48 50 46 40 36 40 44 41 37 29 22 14 32 35 36 36 41 43 44 51
188 187 170 158 155 136 120 115 105 90 74 66 59 60 76 88 85 74 60 54 49 45 48 57 55 54 42 40 41 39 39 35 31 29 21 21 28 31 34 40 42 44 48
189 183 173 168 154 144 142 143 118 101 90 73 55 65 77 89 96 92 80 61 46 50 58 60 53 51 51 47 42 35 36 35 34 30 25 20 14 22 28 33 36 45 50
174 174 180 168 155 155 150 136 120 107 99 85 71 76 85 97 102 97 87 67 48 57 61 67 57 59 48 45 41 30 29 28 31 30 29 23 19 15 17 25 31 40 50
175 173 167 157 156 157 141 123 109 98 89 76 71 75 85 99 100 102 94 76 64 65 59 67 58 63 63 49 49 41 29 29 21 25 26 22 20 19 15 17 25 32 42
170 164 162 153 148 138 120 92 74 64 52 54 78 113 112 107 108 107 99 85 80 78 62 65 74 54 61 53 59 46 27 22 25 27 21 18 18 20 21 20 18 20 33
159 160 166 163 160 145 143 140 126 131 35 25 18 125 124 122 120 118 109 95 89 93 94 95 91 71 47 32 57 28 11 21 30 23 17 21 18 15 24 27 24 23 22
178 181 177 178 174 172 175 164 148 139 159 206 318 60 118 136 138 139 131 124 116 105 92 89 90 88 47 37 80 73 11 353 1 15 15 24 15 16 25 26 26 26 27
190 193 190 188 181 178 154 118 95 75 52 33 355 327 273 164 153 144 144 135 133 131 136 134 119 120 117 33 57 112 128 242 316 341 4 18 17 23 21 19 26 21 25
203 196 191 186 178 173 158 154 154 161 186 212 206 219 245 192 175 152 146 140 143 138 143 166 140 127 125 114 43 50 111 152 146 329 337 357 15 25 20 20 18 18 22
195 187 190 185 178 174 173 173 171 175 195 186 151 169 213 252 194 160 151 146 149 152 161 161 137 129 129 139 140 131 90 64 87 138 297 331 353 3 15 17 13 12 15
176 175 175 179 184 178 182 182 182 182 176 161 188 197 213 236 244 192 157 162 164 161 167 168 156 146 144 138 145 149 148 146 173 157 197 282 318 329 355 13 8 360 6